Other Public Products
Issued by NWS Grand Forks, ND

Home | Current Version | Previous Version | Graphics & Text | Print | Product List | Glossary On
Versions: 1 2 3 4 5 6 7 8 9 10 11 12 13 14 15 16 17 18 19 20 21 22 23 24 25 26 27 28 29 30 31 32 33 34 35 36 37 38 39 40 41 42 43 44 45 46 47 48 49 50
000
FPUS83 KFGF 031331
OPUFGF
PRAIRIE TO PINES WEATHER ROUNDUP
NATIONAL WEATHER SERVICE EASTERN NORTH DAKOTA/GRAND FORKS ND
700 AM CST TUE MAR 03 2015

 **SATELLITE DATA USED TO AUGMENT SKY COVER AT AUTOMATED STATIONS**
 *****  WEATHER ACROSS EASTERN NORTH DAKOTA  *****

CITY           SKY/WX    TMP DP  RH WIND       PRES   REMARKS
GRAND FORKS    CLOUDY    14   7  73 NW22G29   29.81R WCI  -4
GRAND FORKS AF CLOUDY    12   5  73 N23       29.81S WCI  -7
GRAND CITY NWS   N/A     14 N/A N/A NW12        N/A  WCI   0
BUXTON         NOT AVBL
DEVILS LAKE    CLOUDY     7  -2  66 NW24      29.86R WCI -15
FARGO          FLURRIES  18  11  74 NW28G37   29.78R WCI  -1
WAHPETON ARPT  CLOUDY    19  14  79 NW18G26   29.77R VSB 1   WCI   4
$$

 *****  WEATHER ACROSS CENTRAL AND WESTERN NORTH DAKOTA  *****

CITY           SKY/WX    TMP DP  RH WIND       PRES   REMARKS
JAMESTOWN      CLOUDY    10   3  73 NW25G38   29.83R WCI -11
BISMARCK       MOCLDY     8  -1  66 NW17G25   29.98R WCI -10
MINOT          CLEAR      1  -9  62 NW22      29.97R WCI -21
MINOT AFB      CLEAR      0  -8  71 NW21      29.97R WCI -23
GARRISON         N/A      2  -5  72 NW21G32   29.98R WCI -20
WILLISTON      CLOUDY     3  -3  76 NW9       30.09R WCI -12
DICKINSON      MOCLDY     4  -7  60 NW23G32   29.97R WCI -18
HETTINGER      CLOUDY     8  -2  63 NW26G38   29.98R WCI -14
$$

 *****  OTHER OBSERVATIONS NORTHEAST NORTH DAKOTA  *****

CITY           SKY/WX    TMP DP  RH WIND       PRES   REMARKS
WALHALLA       LGT SNOW   9   5  85 NW18G26   29.83S WCI -10
LANGDON        NOT AVBL
CAVALIER       LGT SNOW  10   5  79 NW22G28   29.83R WCI  -9
GRAFTON        NOT AVBL
CANDO          CLOUDY     1  -4  78 NW15      29.88R WCI -18
FORT TOTTEN      N/A      6  -2  70 NW12      29.95S WCI -10
ROLLA          FAIR       0  -8  71 NW22G31   29.85S WCI -23
RUGBY          FAIR       0  -6  78 NW26G33   29.92R WCI -25
 ***** THE ABOVE OBSERVATIONS ARE NON NWS ARE NOT QUALITY
        CONTROLLED AND MAY MIS-REPORT RAIN FOR SNOW...
$$

 *****  OTHER OBSERVATIONS SOUTHEAST NORTH DAKOTA *****

CITY           SKY/WX    TMP DP  RH WIND       PRES   REMARKS
COOPERSTOWN    NOT AVBL
VALLEY CITY    FLURRIES  12   9  85 NW25G35   29.81R WCI  -8
OAKES            N/A     14   9  79 NW33G40   29.80R WCI  -8
GWINNER        CLOUDY    19  12  73 N24G33    29.79R WCI   2
SHEYENNE NWR     N/A     17  12  79 N20       29.95S WCI   1
BUFFALO        NOT AVBL
WYNDMERE         N/A     18  16  93 NW20        N/A  WCI   1
 ***** THE ABOVE OBSERVATIONS ARE NON NWS ARE NOT QUALITY
       CONTROLLED AND MAY MIS-REPORT RAIN FOR SNOW...
$$

  *****  WEATHER ACROSS NORTHERN MINNESOTA  *****

CITY           SKY/WX    TMP DP  RH WIND       PRES   REMARKS
FLAG ISLAND    LGT SNOW  18  12  79 NW23G31   29.63R WCI   0
WARROAD        FLURRIES  19  12  73 NW15G21   29.66S WCI   5
ROSEAU         LGT SNOW  16  10  79 NW15      29.69S WCI   1
HALLOCK        CLOUDY    12   7  79 NW22      29.79S WCI  -7
THF RVR FALLS  CLOUDY    12   9  85 NW22      29.72S WCI  -7
HALSTAD          N/A     16  10  78 N28         N/A  WCI  -4
FOSSTON        CLOUDY    16  10  79 NW21G26   29.70R FOG     WCI  -2
BAUDETTE       LGT SNOW  21  16  81 W18       29.61S WCI   6
WASKISH        LGT SNOW  23  19  86 W5        29.61F WCI  17
CROOKSTON      CLOUDY    16   9  73 N24G33    29.78S WCI  -3
$$
  *****  WEATHER ACROSS CENTRAL AND WEST MINNESOTA  *****

CITY           SKY/WX    TMP DP  RH WIND       PRES   REMARKS
BEMIDJI        LGT SNOW  21  19  89 W16G25    29.62S VSB 3/4 WCI   7
PARK RAPIDS    LGT SNOW  22  19  89 SW3       29.62F VSB 3/4
WADENA         SNOW      19  19 100 SW5       29.65R VSB 1/2 WCI  13
DETROIT LAKES  LGT SNOW  19  19 100 NW16      29.70R VSB 3/4 WCI   5
MOORHEAD       MIX PCPN  18  18 100 NW21G29   29.77R WCI   1
FERGUS FALLS   LGT SNOW  19  18  93 N24G30    29.74R WCI   2
ELBOW LAKE     LGT SNOW  20  19  93 NW23      29.68R VSB 3/4 WCI   3
MORRIS MN      SNOW      23  21  93 SW7       29.69R VSB 1/2 WCI  15
STAPLES        LGT SNOW  19  18  93 SW3       29.65S VSB 3/4
WHEATON        LGT SNOW  18  16  93 NW21G33   29.77R VSB 3/4 WCI   1
$$
  *****  WEATHER ELSEWHERE ACROSS MINNESOTA  *****

CITY           SKY/WX    TMP DP  RH WIND       PRES   REMARKS
DULUTH         LGT SNOW  19  15  84 S14       29.65F VSB 3/4 WCI   6
INTRNTL FALLS  LGT SNOW  24  17  74 SW12      29.57F WCI  13
ELY            LGT SNOW  19  18  93 SW7       29.60F WCI  10
CLOQUET        LGT SNOW  19  16  86 S6        29.66F WCI  11
BRAINERD       SNOW      19  17  92 S8        29.65F VSB 1/4 WCI   9
HIBBING        LGT SNOW  19  16  88 S5        29.62F VSB 3/4 WCI  12
ALEXANDRIA     SNOW      21  19  92 S9        29.66R VSB 1/2 WCI  11
SAINT CLOUD    LGT SNOW  20  17  88 SE7       29.68F VSB 3/4 WCI  11
MINNEAPOLIS    LGT SNOW  22  16  78 SE7       29.71F VSB 3/4 WCI  13
$$

  *****  WEATHER ACROSS SOUTH DAKOTA  *****

CITY           SKY/WX    TMP DP  RH WIND       PRES   REMARKS
SIOUX FALLS    LGT SNOW  24  22  91 CALM      29.68R VSB 1
BROOKINGS      NOT AVBL
WATERTOWN      LGT SNOW  20  17  88 N25G35    29.69R VSB 1   WCI   2
HURON          LGT SNOW  20  17  88 N35G45    29.76R VSB 1   WCI   0
SISSETON         N/A     20  19  96 N22       29.73  WCI   3
ABERDEEN       CLOUDY    17  10  74 N24G36    29.85R HAZE    WCI  -1
MITCHELL       LGT SNOW  22  19  89 N29G37    29.75R VSB 3/4 WCI   4
PIERRE         BLWGSNOW  15   8  73 N30G43    29.90R VSB 1   WCI  -5
MOBRIDGE       CLOUDY    14   3  61 N29G38    29.88R WCI  -7
RAPID CITY     LGT SNOW  13   7  77 NW28G39   29.96R BLWGSNOWWCI  -8
$$

  *****  SOME WEATHER IN NEARBY STATES *****

CITY           SKY/WX    TMP DP  RH WIND       PRES   REMARKS
GLASGOW MT     CLEAR      5  -4  66 NW17      30.16R WCI -14
GREAT FALLS MT CLEAR      2  -2  83 CALM      30.19F
CHEYENNE WY    LGT SNOW  15  10  80 N20G31    29.76R WCI  -2
SCOTTSBLUFF NE CLOUDY    24  19  81 N14       29.85R WCI  12
OMAHA NE       FRZ DRZL  32  31  96 S5        29.67R VSB 1
DES MOINES IA  FRZ DRZL  31  29  92 S8        29.67F VSB 1   WCI  23
DAVENPORT IA   CLOUDY    29  26  89 S17       29.77F WCI  17
CHICAGO IL     FRZ DRZL  26  23  88 S16       29.88F FOG     WCI  14
EAU CLAIRE WI  LGT SNOW  22  15  75 SE7       29.70F WCI  13
LA CROSSE WI   CLOUDY    25  20  81 SE12      29.74F HAZE    WCI  14
$$

  *****  SOME NATIONAL WEATHER *****

CITY           SKY/WX    TMP DP  RH WIND       PRES   REMARKS
LA GUARDIA NY  PTSUNNY   26   9  48 W3        30.44S
RALEIGH NC     CLOUDY    37  18  46 E13G20    30.39R
ATLANTA GA     LGT RAIN  52  50  93 E10       30.24R FOG
NEW ORLEANS LA FOG       66  64  93 SE3       30.13R VSB 1/4
OKLAHOMA CITY  CLOUDY    39  36  89 S20       29.88F FOG
ALBUQUERQUE NM CLOUDY    40  32  73 CALM      29.93F
SALT LAKE CITY CLOUDY    36  31  82 SW6       29.78F
LOS ANGELES CA PTCLDY    49  43  80 N6        29.93S
BOISE ID       CLEAR     30  21  69 NW14      29.95R WCI  19
SEATTLE WA     CLEAR     35  30  82 NE3       30.21S
$$

*** WEATHER ACROSS MANITOBA...SASKATCHEWAN AND ONTARIO ***
                ***ONTARIO***

CITY           SKY/WX    TMP DP  RH WIND       PRES   REMARKS
GERALDTON      LGT SNOW  16  12  86 S8        29.65F VSB 3/4 WCI   5
THUNDER BAY    LGT SNOW  19  14  79 CALM      29.69F VSB 1
SIOUX LOOKOUT  FLURRIES  21  14  73 SW7       29.49F WCI  13
TORONTO        CLOUDY    18  12  79 SE5       30.24F WCI  11
BIG TROUT LK   LGT SNOW  12  10  92 SE7       29.39F WCI   2
PICKLE LAKE    LGT SNOW  16  12  86 S9        29.44F WCI   4
DRYDEN         LGT SNOW  21  19  93 SW13G18   29.50F WCI   9
KENORA         LGT SNOW  14  10  85 NW17G23   29.59R DRFTSNOWWCI  -3
$$
                *** MANITOBA***

CITY           SKY/WX    TMP DP  RH WIND       PRES   REMARKS
BRANDON        PTCLDY    -2  -9  71 NW20G28   29.89R WCI -25
DAUPHIN        CLOUDY     1  -8  66 NW10G20   29.89S WCI -14
ISLAND LAKE    LGT SNOW   1  -6  71 NW13G23   29.52R DRFTSNOWWCI -16
PILOT MOUND      N/A      1  -4  78 NW21        N/A  WCI -20
THE PAS        CLOUDY    -8 -15  71 NW24      29.88S WCI -34
THOMPSON       LGT SNOW -11 -18  70 NW15G25   29.71F DRFTSNOWWCI -34
WINNIPEG       MOCLDY     5  -2  72 NW16      29.82R WCI -14
LYNN LAKE      LGT SNOW -17 -26  63 NW15G25   29.83S WCI -41
CHURCHILL      CLOUDY    -9 -15  77 NE17G25   29.88R WCI -33
GILLAM         SNOW      -2  -9  71 N18       29.57F VSB 3/8 WCI -24
$$
                ***SASKATCHEWAN***

CITY           SKY/WX    TMP DP  RH WIND       PRES   REMARKS
ESTEVAN        CLOUDY    -6 -11  77 W17       30.02R WCI -28
KINDERSLEY     PTCLDY    -6 -13  71 NW13      30.16F WCI -25
LLOYDMINSTER   CLEAR     -8 -15  71 W15       30.13S WCI -29
PRINCE ALBERT  PTCLDY    -9 -17  70 W8        30.06F WCI -26
REGINA         CLEAR     -6 -11  77 NW21G28   30.05S WCI -30


USA.gov is the U.S. government's official web portal to all federal, state and local government web resources and services.